Location: Rio Negrinho
(26.2394°S, 49.4999°W)
Time: 22:58:27
(UTC+00:00)

SWIFT - Pass Details

Date: 07 June 2020
Orbit: 545 x 560 km, 20.6° (Epoch: 10 July)

Event Time Altitude Azimuth Distance (km) Brightness Sun altitude
Exits shadow 08:09:53 21° 350° (N) 1,259 4.2 -24.2°
Maximum altitude 08:10:56 23° 13° (NNE) 1,183 4.2 -24.0°
Drops below altitude 10° 08:14:17 10° 66° (ENE) 1,809 6.0 -23.2°
Sets 08:16:55 0° 80° (E) 2,702 7.3 -22.7°
